• MPC Preparation (Info)

  • MPEC 2016-O258: 2015 BD519

    The following Minor Planet Electronic Circular may be linked-to from your own Web pages, but must not otherwise be redistributed electronically.

    A form allowing access to any MPEC is at the bottom of this page.


    Read MPEC 2016-O257 Read MPEC 2016-O259


    M.P.E.C. 2016-O258                               Issued 2016 July 17, 20:24 UT
    
         The Minor Planet Electronic Circulars contain information on unusual
             minor planets and routine data on comets.  They are published
        on behalf of Division F of the International Astronomical Union by the
              Minor Planet Center, Smithsonian Astrophysical Observatory,
                              Cambridge, MA 02138, U.S.A.
    
                 Prepared using the Tamkin Foundation Computer Network
    
                                  MPC@CFA.HARVARD.EDU
                URL https://www.minorplanetcenter.net/    ISSN 1523-6714
    
                                      2015 BD519
    
    Observations:
         K15Bp9D  C2011 01 30.47115 08 39 20.965+19 41 14.36         22.8 wLEO258F51
         K15Bp9D  C2011 01 30.48632 08 39 20.899+19 41 14.59         22.5 wLEO258F51
         K15Bp9D  C2011 01 30.50258 08 39 20.829+19 41 14.94         22.3 wLEO258F51
         K15Bp9D  C2012 02 13.30726 08 43 04.918+19 40 00.40         22.8 wLEO258F51
         K15Bp9D  C2012 02 13.33637 08 43 04.788+19 40 00.94         22.7 wLEO258F51
         K15Bp9D  C2012 02 13.35095 08 43 04.719+19 40 01.28         22.6 wLEO258F51
         K15Bp9D* C2015 01 16.53424 08 59 40.942+19 11 10.53         22.5 wLEO258F51
         K15Bp9D  C2015 01 16.54649 08 59 40.895+19 11 10.87         22.5 wLEO258F51
         K15Bp9D  C2015 01 16.55877 08 59 40.846+19 11 11.35         22.5 wLEO258F51
         K15Bp9D  C2015 01 16.57108 08 59 40.781+19 11 11.30         22.5 wLEO258F51
         K15Bp9D  C2015 01 20.37308 08 59 24.313+19 12 30.41         22.5 wLEO258F51
         K15Bp9D  C2015 01 20.38510 08 59 24.269+19 12 30.71         22.7 wLEO258F51
         K15Bp9D  C2015 01 20.39717 08 59 24.203+19 12 31.03         22.7 wLEO258F51
         K15Bp9D  C2015 01 20.40941 08 59 24.150+19 12 31.27         22.5 wLEO258F51
         K15Bp9D  C2015 03 17.35350 08 55 34.906+19 29 26.69         22.9 wLEO258F51
         K15Bp9D  C2015 03 17.37855 08 55 34.821+19 29 27.20         22.6 wLEO258F51
         K15Bp9D  C2015 03 17.39111 08 55 34.788+19 29 27.25         22.9 wLEO258F51
    
    Observer details:
    F51 Pan-STARRS 1, Haleakala.  Observers B. Gibson, T. Goggia, N. Primak,
        A. Schultz, M. Willman.  Measurers K. Chambers, S. Chastel, Y.-T. Chen,
        L. Denneau, H. Flewelling, M. Holman, M. Huber, R. Jedicke, M. Lackner,
        E. Lilly, H.-W. Lin, E. Magnier, M. Micheli, M. Payne, P. Veres,
        R. Wainscoat, C. Waters, R. Weryk.  1.8-m Ritchey-Chretien + CCD.
    
    Orbital elements:
    2015 BD519
    Epoch 2016 July 31.0 TT = JDT 2457600.5                 MPC
    M 316.12021              (2000.0)            P               Q
    n   0.00237561     Peri.   93.97893     -0.80983601     +0.56585594
    a  55.6270424      Node   120.55051     -0.58381889     -0.75141867
    e   0.3486057      Incl.   10.35749     -0.05762935     -0.33937743
    P 415              H    5.7           G   0.15           U   3
    Residuals in seconds of arc
    110130 F51  0.0   0.0     150116 F51  0.1-  0.1-    150120 F51  0.0   0.0
    110130 F51  0.0   0.0     150116 F51  0.0   0.0     150120 F51  0.0   0.0
    110130 F51  0.1+  0.0     150116 F51  0.1+  0.3+    150317 F51  0.0   0.1-
    120213 F51  0.1+  0.1-    150116 F51  0.1-  0.0     150317 F51  0.1-  0.1+
    120213 F51  0.0   0.0     150120 F51  0.0   0.1-    150317 F51  0.0   0.0
    120213 F51  0.1-  0.0     150120 F51  0.1+  0.0
    
    Ephemeris:
    2015 BD519               a,e,i = 55.63, 0.35, 10                 q = 36.235
    Date    TT    R. A. (2000) Decl.     Delta      r     Elong.  Phase     V
    2016 06 17    09 01 28.6 +19 17 05  47.0842 46.3876    46.3     0.9    22.5
    ...
    2016 07 02    09 02 37.9 +19 12 16  47.2314 46.3749    32.3     0.7    22.5
    ...
    2016 07 10    09 03 19.1 +19 09 28  47.2888 46.3681    24.8     0.5    22.5
    ...
    2016 07 16    09 03 51.5 +19 07 17  47.3212 46.3631    19.3     0.4    22.5
    2016 07 17    09 03 57.0 +19 06 54  47.3257 46.3622    18.4     0.4    22.5
    2016 07 18    09 04 02.6 +19 06 32  47.3300 46.3614    17.4     0.4    22.5
    ...
    2016 07 24    09 04 36.2 +19 04 17  47.3497 46.3563    11.9     0.3    22.5
    ...
    2016 08 01    09 05 21.9 +19 01 16  47.3608 46.3495     4.8     0.1    22.4
    ...
    2016 08 16    09 06 48.4 +18 55 40  47.3335 46.3368    10.0     0.2    22.5
    
    A. U. Tomatic                (C) Copyright 2016 MPC           M.P.E.C. 2016-O258
    

    Read MPEC 2016-O257 Read MPEC 2016-O259


    MPEC number:

    Enter an MPEC number in one of the following forms:

    • 1997-B01 (the full form)
    • J97B01 (the packed version of the full form)
    • B01 (the abbreviated form)